GW0221 Weather Reports


time (UTC)temp
C
wind
direction
speed
KPH
gust
KPH
rain 1hr
cm
rain 24hr
cm
rain mn
cm
humidity
%
barometer
mb
20260504201557 16 61 8.0 20.9 0.00 0.00 0.00 67 1008.8
20260504200059 16 300 8.0 25.7 0.00 0.00 0.00 69 1009.0
20260504194600 16 330 9.7 20.9 0.00 0.00 0.00 67 1009.2
20260504193114 16 246 6.4 19.3 0.00 0.00 0.00 67 1009.4
20260504191559 17 328 8.0 22.5 0.00 0.00 0.00 64 1009.4
20260504190109 18 330 4.8 11.3 0.00 0.00 0.00 60 1009.5
20260504184600 17 271 8.0 24.1 0.00 0.00 0.00 62 1009.5
20260504183102 17 297 9.7 20.9 0.00 0.00 0.00 63 1009.7
20260504181602 17 17 6.4 20.9 0.00 0.00 0.00 60 1009.7
20260504180141 17 329 11.3 24.1 0.00 0.00 0.00 61 1010.0
20260504174558 16 27 9.7 22.5 0.00 0.00 0.00 63 1010.2
20260504173058 17 322 9.7 19.3 0.00 0.00 0.00 62 1010.2
20260504171601 17 295 9.7 17.7 0.00 0.00 0.00 63 1010.4
20260504160105 18 275 3.2 14.5 0.00 0.00 0.00 54 1011.1
20260504140103 16 131 4.8 19.3 0.00 0.00 0.00 53 1011.6
20260504120109 12 106 3.2 11.3 0.00 0.00 0.00 61 1012.3
20260504100116 8 0 0.0 1.6 0.00 0.00 0.00 66 1012.1
20260504081601 9 142 0.0 6.4 0.00 0.00 0.00 64 1011.4
20260504060109 10 136 3.2 11.3 0.00 0.00 0.00 60 1010.9
20260504050113 10 125 1.6 6.4 0.00 0.00 0.00 62 1010.7
20260504044559 10 0 0.0 6.4 0.00 0.00 0.00 61 1010.6
20260504043105 10 150 0.0 6.4 0.00 0.00 0.00 60 1010.5
20260504041559 10 0 0.0 6.4 0.00 0.00 0.00 60 1010.6
20260504040104 9 0 1.6 6.4 0.00 0.00 0.00 63 1010.5
20260504034615 8 0 0.0 0.0 0.00 0.00 0.00 68 1010.4
20260504033104 8 0 0.0 0.0 0.00 0.00 0.00 66 1010.4
20260504031604 8 0 0.0 1.6 0.00 0.00 0.00 66 1010.3
20260504030058 8 0 0.0 0.0 0.00 0.00 0.00 64 1010.3
20260504024600 7 0 0.0 0.0 0.00 0.00 0.00 62 1010.2
20260504023059 7 0 0.0 0.0 0.00 0.00 0.00 62 1010.3
20260504021600 7 0 0.0 0.0 0.00 0.00 0.00 59 1010.3
20260504020109 8 0 0.0 0.0 0.00 0.00 0.00 55 1010.3
20260504014606 9 0 0.0 0.0 0.00 0.00 0.00 54 1010.2
20260504013107 9 0 0.0 1.6 0.00 0.00 0.00 52 1010.0
20260504011556 10 0 0.0 0.0 0.00 0.00 0.00 51 1009.9
20260504004612 12 0 0.0 1.6 0.00 0.00 0.00 42 1009.5
20260504003059 12 0 0.0 1.6 0.00 0.00 0.00 37 1009.3
20260504001602 13 0 1.6 6.4 0.00 0.00 0.00 34 1009.1
20260503234558 14 149 4.8 17.7 0.00 0.00 0.00 32 1008.6
20260503233100 14 129 6.4 17.7 0.00 0.00 0.00 31 1008.6
20260503231604 14 147 3.2 16.1 0.00 0.00 0.00 31 1008.4
20260503230113 15 111 6.4 17.7 0.00 0.00 0.00 30 1008.4
20260503224604 15 119 9.7 25.7 0.00 0.00 0.00 29 1008.3
20260503223056 15 137 8.0 19.3 0.00 0.00 0.00 30 1008.1
20260503221601 15 127 9.7 22.5 0.00 0.00 0.00 30 1008.1
20260503220058 15 165 9.7 24.1 0.00 0.00 0.00 30 1008.0
20260503214558 15 136 9.7 22.5 0.00 0.00 0.00 31 1008.0
20260503213103 15 143 11.3 25.7 0.00 0.00 0.00 31 1007.8
20260503211614 15 169 11.3 24.1 0.00 0.00 0.00 31 1007.8
20260503210101 14 152 14.5 33.8 0.00 0.00 0.00 32 1007.9
20260503204600 14 127 14.5 30.6 0.00 0.00 0.00 33 1007.9
20260503203106 14 131 8.0 30.6 0.00 0.00 0.00 35 1007.7